Time,TemperatureF,DewpointF,PressureIn,WindDirection,WindDirectionDegrees,WindSpeedMPH,WindSpeedGustMPH,Humidity,HourlyPrecipIn,Conditions,Clouds,dailyrainin,SoftwareType,DateUTC
2013-05-23 00:00:00,53.6,38.7,29.78,SSE,147,0.0,8.0,57,0.00,,,-99.99,Weather View 32 v60,2013-05-23 07:00:00,
2013-05-23 00:05:00,53.4,38.5,29.77,SE,146,0.0,8.0,57,0.00,,,-99.99,Weather View 32 v60,2013-05-23 07:05:00,
2013-05-23 00:15:00,53.1,38.7,29.77,SSE,147,0.0,8.0,58,0.00,,,-99.99,Weather View 32 v60,2013-05-23 07:15:00,
2013-05-23 00:20:00,53.0,38.6,29.78,SSE,147,0.0,8.0,58,0.00,,,-99.99,Weather View 32 v60,2013-05-23 07:20:00,
2013-05-23 00:25:00,52.8,38.8,29.78,North,10,0.0,6.0,59,0.00,,,-99.99,Weather View 32 v60,2013-05-23 07:25:00,
2013-05-23 00:30:00,52.7,39.2,29.78,North,352,3.0,6.0,60,0.00,,,-99.99,Weather View 32 v60,2013-05-23 07:30:00,
2013-05-23 00:40:00,52.6,39.1,29.78,SSE,157,0.0,5.0,60,0.00,,,-99.99,Weather View 32 v60,2013-05-23 07:40:00,
2013-05-23 00:50:00,52.5,39.0,29.78,SSW,205,0.0,7.0,60,0.00,,,-99.99,Weather View 32 v60,2013-05-23 07:50:00,
2013-05-23 01:00:00,52.2,39.1,29.78,SSE,152,5.0,7.0,61,0.00,,,-99.99,Weather View 32 v60,2013-05-23 08:00:00,
2013-05-23 01:05:00,52.0,39.4,0.00,SSE,150,2.0,7.0,62,0.00,,,-99.99,Weather View 32 v60,2013-05-23 08:05:00,
2013-05-23 01:15:00,51.8,39.2,29.78,SSE,153,0.0,7.0,62,0.00,,,-99.99,Weather View 32 v60,2013-05-23 08:15:00,
2013-05-23 01:25:00,51.7,39.5,29.78,East,83,2.0,7.0,63,0.00,,,-99.99,Weather View 32 v60,2013-05-23 08:25:00,
2013-05-23 01:30:00,51.6,39.4,29.78,North,0,4.0,7.0,63,0.00,,,-99.99,Weather View 32 v60,2013-05-23 08:30:00,
2013-05-23 01:40:00,51.6,39.8,29.77,ESE,123,2.0,9.0,64,0.00,,,-99.99,Weather View 32 v60,2013-05-23 08:40:00,
2013-05-23 01:45:00,51.6,39.8,29.77,NW,320,0.0,9.0,64,0.00,,,-99.99,Weather View 32 v60,2013-05-23 08:45:00,
2013-05-23 01:55:00,51.4,39.6,29.77,WSW,251,3.0,9.0,64,0.00,,,-99.99,Weather View 32 v60,2013-05-23 08:55:00,
2013-05-23 02:00:00,51.4,39.2,29.77,NE,38,2.0,9.0,63,0.00,,,-99.99,Weather View 32 v60,2013-05-23 09:00:00,
2013-05-23 02:05:00,51.3,39.5,29.77,NE,38,0.0,9.0,64,0.00,,,-99.99,Weather View 32 v60,2013-05-23 09:05:00,
2013-05-23 02:15:00,51.3,39.5,29.77,NE,38,2.0,9.0,64,0.00,,,-99.99,Weather View 32 v60,2013-05-23 09:15:00,
2013-05-23 02:20:00,51.1,39.3,29.77,NE,38,0.0,9.0,64,0.00,,,-99.99,Weather View 32 v60,2013-05-23 09:20:00,
2013-05-23 02:25:00,51.0,39.2,29.77,ESE,115,4.0,9.0,64,0.00,,,-99.99,Weather View 32 v60,2013-05-23 09:25:00,
2013-05-23 02:35:00,50.9,39.1,29.77,North,9,0.0,8.0,64,0.00,,,-99.99,Weather View 32 v60,2013-05-23 09:35:00,
2013-05-23 02:40:00,50.9,38.7,29.76,ENE,61,0.0,8.0,63,0.00,,,-99.99,Weather View 32 v60,2013-05-23 09:40:00,
2013-05-23 02:50:00,50.9,38.7,29.77,ENE,61,2.0,8.0,63,0.00,,,-99.99,Weather View 32 v60,2013-05-23 09:50:00,
2013-05-23 02:55:00,50.8,38.6,29.76,ENE,66,2.0,8.0,63,0.00,,,-99.99,Weather View 32 v60,2013-05-23 09:55:00,
2013-05-23 03:05:00,50.9,38.7,29.77,NE,48,5.0,8.0,63,0.00,,,-99.99,Weather View 32 v60,2013-05-23 10:05:00,
2013-05-23 03:10:00,51.0,38.8,29.76,NE,43,6.0,10.0,63,0.00,,,-99.99,Weather View 32 v60,2013-05-23 10:10:00,
2013-05-23 03:20:00,51.2,38.6,29.76,NNW,345,8.0,14.0,62,0.00,,,-99.99,Weather View 32 v60,2013-05-23 10:20:00,
2013-05-23 03:25:00,51.3,38.7,29.76,NNE,31,5.0,14.0,62,0.00,,,-99.99,Weather View 32 v60,2013-05-23 10:25:00,
2013-05-23 03:30:00,51.3,38.7,29.76,NE,37,2.0,14.0,62,0.00,,,-99.99,Weather View 32 v60,2013-05-23 10:30:00,
2013-05-23 03:40:00,51.2,38.6,29.76,NE,44,5.0,14.0,62,0.00,,,-99.99,Weather View 32 v60,2013-05-23 10:40:00,
2013-05-23 03:50:00,50.9,38.7,29.76,NE,45,0.0,14.0,63,0.00,,,-99.99,Weather View 32 v60,2013-05-23 10:50:00,
2013-05-23 03:55:00,50.8,38.6,29.76,NE,40,5.0,14.0,63,0.00,,,-99.99,Weather View 32 v60,2013-05-23 10:55:00,
2013-05-23 04:00:00,50.7,38.5,29.76,North,0,5.0,14.0,63,0.00,,,-99.99,Weather View 32 v60,2013-05-23 11:00:00,
2013-05-23 04:09:00,50.5,38.8,29.77,NE,49,2.0,14.0,64,0.00,,,-99.99,Weather View 32 v60,2013-05-23 11:09:00,
2013-05-23 04:15:00,50.1,38.8,29.77,NNE,18,11.0,14.0,65,0.00,,,-99.99,Weather View 32 v60,2013-05-23 11:15:00,
2013-05-23 04:20:00,50.0,38.7,29.77,NE,48,2.0,13.0,65,0.00,,,-99.99,Weather View 32 v60,2013-05-23 11:20:00,
2013-05-23 04:25:00,50.0,38.3,29.77,NNW,347,1.0,13.0,64,0.00,,,-99.99,Weather View 32 v60,2013-05-23 11:25:00,
2013-05-23 04:35:00,49.8,38.5,29.77,NE,45,4.0,13.0,65,0.00,,,-99.99,Weather View 32 v60,2013-05-23 11:35:00,
2013-05-23 04:40:00,49.7,38.8,29.78,ENE,68,4.0,15.0,66,0.00,,,-99.99,Weather View 32 v60,2013-05-23 11:40:00,
2013-05-23 04:50:00,49.5,38.2,29.78,ENE,68,6.0,15.0,65,0.00,,,-99.99,Weather View 32 v60,2013-05-23 11:50:00,
2013-05-23 04:55:00,49.4,38.1,29.78,NNE,21,5.0,15.0,65,0.00,,,-99.99,Weather View 32 v60,2013-05-23 11:55:00,
2013-05-23 05:05:00,49.3,37.6,29.78,NNE,33,4.0,15.0,64,0.00,,,-99.99,Weather View 32 v60,2013-05-23 12:05:00,
2013-05-23 05:10:00,49.2,37.5,29.78,ESE,106,5.0,15.0,64,0.00,,,-99.99,Weather View 32 v60,2013-05-23 12:10:00,
2013-05-23 05:20:00,49.2,37.5,29.78,ENE,62,5.0,15.0,64,0.00,,,-99.99,Weather View 32 v60,2013-05-23 12:20:00,
2013-05-23 05:30:00,49.3,37.6,29.78,NE,38,2.0,15.0,64,0.00,,,-99.99,Weather View 32 v60,2013-05-23 12:30:00,
2013-05-23 05:40:00,49.1,37.0,29.78,North,0,4.0,11.0,63,0.00,,,-99.99,Weather View 32 v60,2013-05-23 12:40:00,
2013-05-23 05:50:00,49.1,37.0,29.78,SE,124,0.0,10.0,63,0.00,,,-99.99,Weather View 32 v60,2013-05-23 12:50:00,
2013-05-23 05:55:00,49.1,37.0,29.78,SSE,167,4.0,10.0,63,0.00,,,-99.99,Weather View 32 v60,2013-05-23 12:55:00,
2013-05-23 06:05:00,48.9,36.8,29.78,NE,55,1.0,10.0,63,0.00,,,-99.99,Weather View 32 v60,2013-05-23 13:05:00,
2013-05-23 06:10:00,48.9,36.8,29.79,ENE,59,0.0,10.0,63,0.00,,,-99.99,Weather View 32 v60,2013-05-23 13:10:00,
2013-05-23 06:20:00,49.0,36.9,29.79,NNE,21,2.0,10.0,63,0.00,,,-99.99,Weather View 32 v60,2013-05-23 13:20:00,
2013-05-23 06:30:00,49.2,37.1,29.79,ENE,57,0.0,9.0,63,0.00,,,-99.99,Weather View 32 v60,2013-05-23 13:30:00,
2013-05-23 06:40:00,49.3,37.2,29.79,NNE,28,6.0,9.0,63,0.00,,,-99.99,Weather View 32 v60,2013-05-23 13:40:00,
2013-05-23 06:45:00,49.3,37.2,29.79,North,0,3.0,9.0,63,0.00,,,-99.99,Weather View 32 v60,2013-05-23 13:45:00,
2013-05-23 06:55:00,49.4,37.3,29.80,ENE,63,7.0,13.0,63,0.00,,,-99.99,Weather View 32 v60,2013-05-23 13:55:00,
2013-05-23 07:05:00,49.4,37.3,29.80,North,0,3.0,13.0,63,0.00,,,-99.99,Weather View 32 v60,2013-05-23 14:05:00,
2013-05-23 07:10:00,49.4,37.3,29.80,SSW,206,5.0,13.0,63,0.00,,,-99.99,Weather View 32 v60,2013-05-23 14:10:00,
2013-05-23 07:20:00,49.5,37.4,29.80,North,350,7.0,13.0,63,0.00,,,-99.99,Weather View 32 v60,2013-05-23 14:20:00,
2013-05-23 07:30:00,49.8,37.7,29.81,NNW,339,8.0,13.0,63,0.00,,,-99.99,Weather View 32 v60,2013-05-23 14:30:00,
2013-05-23 07:35:00,49.8,37.7,29.80,NNE,25,7.0,13.0,63,0.00,,,-99.99,Weather View 32 v60,2013-05-23 14:35:00,
2013-05-23 07:45:00,50.0,37.9,29.81,South,188,2.0,13.0,63,0.00,,,-99.99,Weather View 32 v60,2013-05-23 14:45:00,
2013-05-23 07:55:00,50.1,38.0,29.80,North,351,3.0,13.0,63,0.00,,,-99.99,Weather View 32 v60,2013-05-23 14:55:00,
2013-05-23 08:05:00,50.2,38.1,29.81,NE,39,4.0,12.0,63,0.00,,,-99.99,Weather View 32 v60,2013-05-23 15:05:00,
2013-05-23 08:11:00,50.3,38.2,29.81,North,355,3.0,12.0,63,0.00,,,-99.99,Weather View 32 v60,2013-05-23 15:11:00,
2013-05-23 08:20:00,50.5,37.9,29.81,NNE,28,2.0,12.0,62,0.00,,,-99.99,Weather View 32 v60,2013-05-23 15:20:00,
2013-05-23 08:30:00,50.8,38.6,29.81,North,2,3.0,12.0,63,0.00,,,-99.99,Weather View 32 v60,2013-05-23 15:30:00,
2013-05-23 08:40:00,51.1,38.5,29.81,NE,39,6.0,12.0,62,0.00,,,-99.99,Weather View 32 v60,2013-05-23 15:40:00,
2013-05-23 08:45:00,51.4,38.8,29.81,North,0,3.0,12.0,62,0.00,,,-99.99,Weather View 32 v60,2013-05-23 15:45:00,
2013-05-23 08:55:00,51.9,39.3,29.82,ENE,65,3.0,12.0,62,0.00,,,-99.99,Weather View 32 v60,2013-05-23 15:55:00,
2013-05-23 09:05:00,52.5,39.4,29.82,North,355,1.0,9.0,61,0.00,,,-99.99,Weather View 32 v60,2013-05-23 16:05:00,
2013-05-23 09:10:00,52.8,39.7,29.82,NE,36,7.0,9.0,61,0.00,,,-99.99,Weather View 32 v60,2013-05-23 16:10:00,
2013-05-23 09:20:00,53.4,39.8,29.83,North,0,4.0,9.0,60,0.00,,,-99.99,Weather View 32 v60,2013-05-23 16:20:00,
2013-05-23 09:25:00,53.7,40.1,29.83,NNE,33,6.0,9.0,60,0.00,,,-99.99,Weather View 32 v60,2013-05-23 16:25:00,
2013-05-23 09:30:00,53.9,40.3,29.83,North,4,3.0,9.0,60,0.00,,,-99.99,Weather View 32 v60,2013-05-23 16:30:00,
2013-05-23 09:40:00,54.4,40.8,29.83,North,2,4.0,9.0,60,0.00,,,-99.99,Weather View 32 v60,2013-05-23 16:40:00,
2013-05-23 09:50:00,55.0,40.9,29.83,North,2,5.0,9.0,59,0.00,,,-99.99,Weather View 32 v60,2013-05-23 16:50:00,
2013-05-23 09:55:00,55.3,40.3,29.83,North,0,1.0,9.0,57,0.00,,,-99.99,Weather View 32 v60,2013-05-23 16:55:00,
2013-05-23 10:00:00,55.6,40.6,29.83,North,0,0.0,9.0,57,0.00,,,-99.99,Weather View 32 v60,2013-05-23 17:00:00,
2013-05-23 10:10:00,56.2,40.7,29.83,NNE,12,1.0,9.0,56,0.00,,,-99.99,Weather View 32 v60,2013-05-23 17:10:00,
2013-05-23 10:15:00,56.5,41.4,29.83,NNW,343,3.0,8.0,57,0.00,,,-99.99,Weather View 32 v60,2013-05-23 17:15:00,
2013-05-23 10:20:00,56.9,41.3,29.83,NNE,19,3.0,8.0,56,0.00,,,-99.99,Weather View 32 v60,2013-05-23 17:20:00,
2013-05-23 10:25:00,57.3,41.7,29.83,South,176,2.0,8.0,56,0.00,,,-99.99,Weather View 32 v60,2013-05-23 17:25:00,
2013-05-23 10:30:00,57.7,41.1,29.83,South,176,2.0,6.0,54,0.00,,,-99.99,Weather View 32 v60,2013-05-23 17:30:00,
2013-05-23 10:40:00,58.3,42.2,29.83,North,0,4.0,6.0,55,0.00,,,-99.99,Weather View 32 v60,2013-05-23 17:40:00,
2013-05-23 10:50:00,59.2,42.0,29.83,NNW,338,2.0,7.0,53,0.00,,,-99.99,Weather View 32 v60,2013-05-23 17:50:00,
2013-05-23 10:55:00,59.5,41.8,29.83,NW,317,4.0,7.0,52,0.00,,,-99.99,Weather View 32 v60,2013-05-23 17:55:00,
2013-05-23 11:00:00,59.8,42.1,0.00,North,2,5.0,7.0,52,0.00,,,-99.99,Weather View 32 v60,2013-05-23 18:00:00,
2013-05-23 11:05:00,60.0,42.3,29.83,North,0,3.0,7.0,52,0.00,,,-99.99,Weather View 32 v60,2013-05-23 18:05:00,
2013-05-23 11:10:00,60.2,42.0,29.83,NNE,14,4.0,7.0,51,0.00,,,-99.99,Weather View 32 v60,2013-05-23 18:10:00,
2013-05-23 11:20:00,60.7,41.9,29.84,North,0,1.0,7.0,50,0.00,,,-99.99,Weather View 32 v60,2013-05-23 18:20:00,
2013-05-23 11:25:00,60.8,40.9,29.83,North,0,1.0,7.0,48,0.00,,,-99.99,Weather View 32 v60,2013-05-23 18:25:00,
2013-05-23 11:30:00,61.0,41.1,29.84,North,0,2.0,7.0,48,0.00,,,-99.99,Weather View 32 v60,2013-05-23 18:30:00,
2013-05-23 11:35:00,61.4,41.5,29.84,North,0,1.0,7.0,48,0.00,,,-99.99,Weather View 32 v60,2013-05-23 18:35:00,
2013-05-23 11:40:00,61.7,41.2,29.84,North,0,1.0,7.0,47,0.00,,,-99.99,Weather View 32 v60,2013-05-23 18:40:00,
2013-05-23 11:45:00,62.0,40.4,29.84,South,183,3.0,7.0,45,0.00,,,-99.99,Weather View 32 v60,2013-05-23 18:45:00,
2013-05-23 11:50:00,62.5,39.6,29.84,SW,232,5.0,6.0,43,0.00,,,-99.99,Weather View 32 v60,2013-05-23 18:50:00,
2013-05-23 11:55:00,62.9,40.6,29.84,SSW,205,2.0,6.0,44,0.00,,,-99.99,Weather View 32 v60,2013-05-23 18:55:00,
2013-05-23 12:00:00,63.1,40.8,29.84,SSW,210,3.0,6.0,44,0.00,,,-99.99,Weather View 32 v60,2013-05-23 19:00:00,
2013-05-23 12:05:00,63.5,41.1,29.84,NW,320,2.0,6.0,44,0.00,,,-99.99,Weather View 32 v60,2013-05-23 19:05:00,
2013-05-23 12:10:00,63.9,41.5,29.84,NNE,27,7.0,10.0,44,0.00,,,-99.99,Weather View 32 v60,2013-05-23 19:10:00,
2013-05-23 12:15:00,64.1,41.7,29.84,North,353,2.0,10.0,44,0.00,,,-99.99,Weather View 32 v60,2013-05-23 19:15:00,
2013-05-23 12:20:00,64.3,42.5,29.84,NNW,345,3.0,10.0,45,0.00,,,-99.99,Weather View 32 v60,2013-05-23 19:20:00,
2013-05-23 12:30:00,64.8,41.1,29.84,SW,220,3.0,10.0,42,0.00,,,-99.99,Weather View 32 v60,2013-05-23 19:30:00,
2013-05-23 12:35:00,65.3,41.6,29.84,NNW,336,6.0,10.0,42,0.00,,,-99.99,Weather View 32 v60,2013-05-23 19:35:00,
2013-05-23 12:40:00,65.5,41.7,29.84,ENE,77,0.0,10.0,42,0.00,,,-99.99,Weather View 32 v60,2013-05-23 19:40:00,
2013-05-23 12:50:00,66.0,42.8,29.83,SE,140,2.0,10.0,43,0.00,,,-99.99,Weather View 32 v60,2013-05-23 19:50:00,
2013-05-23 12:55:00,66.3,44.3,29.83,South,186,3.0,10.0,45,0.00,,,-99.99,Weather View 32 v60,2013-05-23 19:55:00,
2013-05-23 13:00:00,66.6,43.3,29.84,SSW,195,2.0,10.0,43,0.00,,,-99.99,Weather View 32 v60,2013-05-23 20:00:00,
2013-05-23 13:05:00,66.7,43.4,29.84,NNE,13,4.0,10.0,43,0.00,,,-99.99,Weather View 32 v60,2013-05-23 20:05:00,
2013-05-23 13:15:00,66.8,44.1,29.84,NNW,343,1.0,11.0,44,0.00,,,-99.99,Weather View 32 v60,2013-05-23 20:15:00,
2013-05-23 13:20:00,66.3,44.3,29.84,North,351,1.0,11.0,45,0.00,,,-99.99,Weather View 32 v60,2013-05-23 20:20:00,
2013-05-23 13:30:00,66.2,44.2,29.84,NNW,339,3.0,11.0,45,0.00,,,-99.99,Weather View 32 v60,2013-05-23 20:30:00,
2013-05-23 13:35:00,66.3,43.7,29.84,SE,144,1.0,11.0,44,0.00,,,-99.99,Weather View 32 v60,2013-05-23 20:35:00,
2013-05-23 13:45:00,66.7,44.0,29.84,South,170,5.0,11.0,44,0.00,,,-99.99,Weather View 32 v60,2013-05-23 20:45:00,
2013-05-23 13:50:00,67.3,44.6,29.84,South,186,3.0,11.0,44,0.00,,,-99.99,Weather View 32 v60,2013-05-23 20:50:00,
2013-05-23 13:55:00,68.2,44.8,29.84,SE,138,6.0,11.0,43,0.00,,,-99.99,Weather View 32 v60,2013-05-23 20:55:00,
2013-05-23 14:00:00,68.7,44.6,29.84,SSE,162,3.0,11.0,42,0.00,,,-99.99,Weather View 32 v60,2013-05-23 21:00:00,
2013-05-23 14:10:00,69.2,45.1,29.84,SSE,154,8.0,11.0,42,0.00,,,-99.99,Weather View 32 v60,2013-05-23 21:10:00,
2013-05-23 14:15:00,69.8,45.6,29.84,SSE,156,4.0,11.0,42,0.00,,,-99.99,Weather View 32 v60,2013-05-23 21:15:00,
2013-05-23 14:25:00,70.1,45.2,29.84,SE,142,1.0,11.0,41,0.00,,,-99.99,Weather View 32 v60,2013-05-23 21:25:00,
2013-05-23 14:30:00,69.8,45.0,29.84,NE,54,3.0,11.0,41,0.00,,,-99.99,Weather View 32 v60,2013-05-23 21:30:00,
2013-05-23 14:35:00,69.1,44.3,29.84,WNW,285,3.0,11.0,41,0.00,,,-99.99,Weather View 32 v60,2013-05-23 21:35:00,
2013-05-23 14:40:00,68.6,44.5,29.85,SSE,150,1.0,11.0,42,0.00,,,-99.99,Weather View 32 v60,2013-05-23 21:40:00,
2013-05-23 14:45:00,68.8,44.7,29.84,North,351,12.0,12.0,42,0.00,,,-99.99,Weather View 32 v60,2013-05-23 21:45:00,
2013-05-23 14:50:00,68.5,44.4,29.84,NE,42,5.0,12.0,42,0.00,,,-99.99,Weather View 32 v60,2013-05-23 21:50:00,
2013-05-23 14:55:00,68.3,44.9,29.84,ENE,75,4.0,12.0,43,0.00,,,-99.99,Weather View 32 v60,2013-05-23 21:55:00,
2013-05-23 15:00:00,67.8,44.4,29.84,North,1,10.0,14.0,43,0.00,,,-99.99,Weather View 32 v60,2013-05-23 22:00:00,
2013-05-23 15:05:00,67.5,44.2,29.84,NNW,348,4.0,15.0,43,0.00,,,-99.99,Weather View 32 v60,2013-05-23 22:05:00,
2013-05-23 15:10:00,67.4,44.1,29.84,ENE,59,5.0,15.0,43,0.00,,,-99.99,Weather View 32 v60,2013-05-23 22:10:00,
2013-05-23 15:16:00,67.1,44.4,29.84,North,350,2.0,15.0,44,0.00,,,-99.99,Weather View 32 v60,2013-05-23 22:16:00,
2013-05-23 15:25:00,67.2,43.3,29.84,NE,47,5.0,15.0,42,0.00,,,-99.99,Weather View 32 v60,2013-05-23 22:25:00,
2013-05-23 15:30:00,67.2,43.3,29.84,SW,233,1.0,15.0,42,0.00,,,-99.99,Weather View 32 v60,2013-05-23 22:30:00,
2013-05-23 15:35:00,67.8,43.2,29.84,SE,141,4.0,15.0,41,0.00,,,-99.99,Weather View 32 v60,2013-05-23 22:35:00,
2013-05-23 15:40:00,68.5,43.8,29.84,South,176,7.0,15.0,41,0.00,,,-99.99,Weather View 32 v60,2013-05-23 22:40:00,
2013-05-23 15:50:00,70.1,43.9,0.00,South,172,3.0,15.0,39,0.00,,,-99.99,Weather View 32 v60,2013-05-23 22:50:00,
2013-05-23 16:00:00,71.3,44.3,29.84,South,172,5.0,15.0,38,0.00,,,-99.99,Weather View 32 v60,2013-05-23 23:00:00,
2013-05-23 16:05:00,72.0,44.2,29.84,SSE,153,6.0,11.0,37,0.00,,,-99.99,Weather View 32 v60,2013-05-23 23:05:00,
2013-05-23 16:10:00,72.3,43.8,29.84,SW,229,2.0,11.0,36,0.00,,,-99.99,Weather View 32 v60,2013-05-23 23:10:00,
2013-05-23 16:16:00,72.6,44.8,29.84,South,176,0.0,11.0,37,0.00,,,-99.99,Weather View 32 v60,2013-05-23 23:16:00,
2013-05-23 16:25:00,73.0,44.4,29.83,NE,37,2.0,11.0,36,0.00,,,-99.99,Weather View 32 v60,2013-05-23 23:25:00,
2013-05-23 16:30:00,73.2,45.3,29.83,SSE,167,4.0,11.0,37,0.00,,,-99.99,Weather View 32 v60,2013-05-23 23:30:00,
2013-05-23 16:35:00,73.6,44.2,29.83,SSE,148,5.0,11.0,35,0.00,,,-99.99,Weather View 32 v60,2013-05-23 23:35:00,
2013-05-23 16:40:00,73.6,44.2,29.84,SSE,161,6.0,11.0,35,0.00,,,-99.99,Weather View 32 v60,2013-05-23 23:40:00,
2013-05-23 16:45:00,73.3,43.9,29.83,South,173,4.0,11.0,35,0.00,,,-99.99,Weather View 32 v60,2013-05-23 23:45:00,
2013-05-23 16:50:00,73.1,43.7,29.84,South,172,5.0,11.0,35,0.00,,,-99.99,Weather View 32 v60,2013-05-23 23:50:00,
2013-05-23 16:55:00,72.6,43.3,29.84,SW,230,1.0,11.0,35,0.00,,,-99.99,Weather View 32 v60,2013-05-23 23:55:00,
2013-05-23 17:00:00,72.4,43.1,29.84,SSE,152,5.0,11.0,35,0.00,,,-99.99,Weather View 32 v60,2013-05-24 00:00:00,
2013-05-23 17:05:00,72.4,43.1,29.83,SSE,165,6.0,14.0,35,0.00,,,-99.99,Weather View 32 v60,2013-05-24 00:05:00,
2013-05-23 17:10:00,72.2,43.0,29.84,ENE,74,5.0,14.0,35,0.00,,,-99.99,Weather View 32 v60,2013-05-24 00:10:00,
2013-05-23 17:15:00,71.7,42.5,29.84,SSE,164,7.0,14.0,35,0.00,,,-99.99,Weather View 32 v60,2013-05-24 00:15:00,
2013-05-23 17:20:00,71.2,42.1,29.83,South,171,4.0,15.0,35,0.00,,,-99.99,Weather View 32 v60,2013-05-24 00:20:00,
2013-05-23 17:30:00,69.5,41.3,29.84,SSE,153,5.0,15.0,36,0.00,,,-99.99,Weather View 32 v60,2013-05-24 00:30:00,
2013-05-23 17:40:00,67.8,41.2,29.83,SSE,153,8.0,15.0,38,0.00,,,-99.99,Weather View 32 v60,2013-05-24 00:40:00,
2013-05-23 17:45:00,67.3,40.8,29.83,SE,136,9.0,15.0,38,0.00,,,-99.99,Weather View 32 v60,2013-05-24 00:45:00,
2013-05-23 17:50:00,66.6,40.1,29.83,South,171,7.0,15.0,38,0.00,,,-99.99,Weather View 32 v60,2013-05-24 00:50:00,
2013-05-23 17:55:00,66.3,40.5,29.83,SSE,165,6.0,15.0,39,0.00,,,-99.99,Weather View 32 v60,2013-05-24 00:55:00,
2013-05-23 18:00:00,66.0,39.6,29.83,SSE,168,4.0,15.0,38,0.00,,,-99.99,Weather View 32 v60,2013-05-24 01:00:00,
2013-05-23 18:10:00,65.7,40.0,29.83,South,182,9.0,15.0,39,0.00,,,-99.99,Weather View 32 v60,2013-05-24 01:10:00,
2013-05-23 18:15:00,65.5,39.8,29.83,SSE,155,7.0,15.0,39,0.00,,,-99.99,Weather View 32 v60,2013-05-24 01:15:00,
2013-05-23 18:25:00,65.0,40.0,29.83,SSE,163,5.0,15.0,40,0.00,,,-99.99,Weather View 32 v60,2013-05-24 01:25:00,
2013-05-23 18:30:00,65.0,40.0,29.83,SE,143,5.0,15.0,40,0.00,,,-99.99,Weather View 32 v60,2013-05-24 01:30:00,
2013-05-23 18:35:00,64.9,38.6,29.83,South,176,3.0,15.0,38,0.00,,,-99.99,Weather View 32 v60,2013-05-24 01:35:00,
2013-05-23 18:40:00,64.9,38.6,29.83,SSE,149,8.0,15.0,38,0.00,,,-99.99,Weather View 32 v60,2013-05-24 01:40:00,
2013-05-23 18:45:00,64.7,39.1,29.83,SE,139,6.0,15.0,39,0.00,,,-99.99,Weather View 32 v60,2013-05-24 01:45:00,
2013-05-23 18:50:00,64.4,39.5,29.83,South,188,6.0,15.0,40,0.00,,,-99.99,Weather View 32 v60,2013-05-24 01:50:00,
2013-05-23 18:55:00,64.1,39.2,29.83,SSE,160,13.0,15.0,40,0.00,,,-99.99,Weather View 32 v60,2013-05-24 01:55:00,
2013-05-23 19:00:00,63.8,39.0,29.83,SSE,150,3.0,15.0,40,0.00,,,-99.99,Weather View 32 v60,2013-05-24 02:00:00,
2013-05-23 19:05:00,63.5,39.3,29.83,SE,131,0.0,15.0,41,0.00,,,-99.99,Weather View 32 v60,2013-05-24 02:05:00,
2013-05-23 19:10:00,63.2,39.7,29.83,SSE,166,1.0,15.0,42,0.00,,,-99.99,Weather View 32 v60,2013-05-24 02:10:00,
2013-05-23 19:15:00,63.0,39.5,29.83,South,183,2.0,14.0,42,0.00,,,-99.99,Weather View 32 v60,2013-05-24 02:15:00,
2013-05-23 19:20:00,62.8,39.3,29.83,South,178,4.0,14.0,42,0.00,,,-99.99,Weather View 32 v60,2013-05-24 02:20:00,
2013-05-23 19:30:00,62.3,39.5,29.83,SSW,192,3.0,14.0,43,0.00,,,-99.99,Weather View 32 v60,2013-05-24 02:30:00,
2013-05-23 19:40:00,62.0,39.2,29.82,SW,215,0.0,14.0,43,0.00,,,-99.99,Weather View 32 v60,2013-05-24 02:40:00,
2013-05-23 19:50:00,61.5,39.3,29.83,SW,215,0.0,13.0,44,0.00,,,-99.99,Weather View 32 v60,2013-05-24 02:50:00,
2013-05-23 19:55:00,61.3,39.2,29.83,SSE,162,1.0,13.0,44,0.00,,,-99.99,Weather View 32 v60,2013-05-24 02:55:00,
2013-05-23 20:00:00,61.0,38.9,29.83,SSE,159,0.0,11.0,44,0.00,,,-99.99,Weather View 32 v60,2013-05-24 03:00:00,
2013-05-23 20:10:00,60.4,38.9,29.83,SSE,159,0.0,11.0,45,0.00,,,-99.99,Weather View 32 v60,2013-05-24 03:10:00,
2013-05-23 20:19:00,60.0,38.5,29.83,SSE,159,0.0,11.0,45,0.00,,,-99.99,Weather View 32 v60,2013-05-24 03:19:00,
2013-05-23 20:25:00,59.3,38.5,29.83,SSE,159,0.0,11.0,46,0.00,,,-99.99,Weather View 32 v60,2013-05-24 03:25:00,
2013-05-23 20:30:00,59.0,38.8,29.83,SSE,159,0.0,7.0,47,0.00,,,-99.99,Weather View 32 v60,2013-05-24 03:30:00,
2013-05-23 20:40:00,58.2,38.6,29.83,SSE,160,0.0,4.0,48,0.00,,,-99.99,Weather View 32 v60,2013-05-24 03:40:00,
2013-05-23 20:45:00,57.9,38.3,29.83,SSE,159,0.0,4.0,48,0.00,,,-99.99,Weather View 32 v60,2013-05-24 03:45:00,
2013-05-23 20:50:00,57.5,37.9,29.83,SSE,159,0.0,4.0,48,0.00,,,-99.99,Weather View 32 v60,2013-05-24 03:50:00,
2013-05-23 20:55:00,57.1,37.6,29.83,SSE,159,0.0,4.0,48,0.00,,,-99.99,Weather View 32 v60,2013-05-24 03:55:00,
2013-05-23 21:00:00,56.8,37.8,29.84,SSE,160,0.0,0.0,49,0.00,,,-99.99,Weather View 32 v60,2013-05-24 04:00:00,
2013-05-23 21:05:00,56.3,37.3,29.84,SSE,159,0.0,0.0,49,0.00,,,-99.99,Weather View 32 v60,2013-05-24 04:05:00,
2013-05-23 21:10:00,56.0,37.1,29.84,SSE,159,0.0,0.0,49,0.00,,,-99.99,Weather View 32 v60,2013-05-24 04:10:00,
2013-05-23 21:15:00,55.6,36.7,29.84,SSE,159,0.0,0.0,49,0.00,,,-99.99,Weather View 32 v60,2013-05-24 04:15:00,
2013-05-23 21:19:00,55.6,36.7,29.84,SSE,159,0.0,0.0,49,0.00,,,-99.99,Weather View 32 v60,2013-05-24 04:19:00,
2013-05-23 21:20:00,55.3,36.9,29.84,SSE,160,0.0,0.0,50,0.00,,,-99.99,Weather View 32 v60,2013-05-24 04:20:00,
2013-05-23 21:25:00,54.8,37.0,29.84,SSE,159,0.0,0.0,51,0.00,,,-99.99,Weather View 32 v60,2013-05-24 04:25:00,
2013-05-23 21:30:00,54.7,36.9,29.84,SSE,159,0.0,0.0,51,0.00,,,-99.99,Weather View 32 v60,2013-05-24 04:30:00,
2013-05-23 21:40:00,54.2,36.9,29.84,SSE,160,0.0,0.0,52,0.00,,,-99.99,Weather View 32 v60,2013-05-24 04:40:00,
2013-05-23 21:45:00,54.0,36.7,29.84,SSE,159,0.0,0.0,52,0.00,,,-99.99,Weather View 32 v60,2013-05-24 04:45:00,
2013-05-23 21:50:00,53.9,36.6,29.85,SSE,159,0.0,0.0,52,0.00,,,-99.99,Weather View 32 v60,2013-05-24 04:50:00,
2013-05-23 21:55:00,53.7,36.0,29.85,SSE,160,0.0,0.0,51,0.00,,,-99.99,Weather View 32 v60,2013-05-24 04:55:00,
2013-05-23 22:00:00,53.5,36.8,29.85,SSE,159,0.0,0.0,53,0.00,,,-99.99,Weather View 32 v60,2013-05-24 05:00:00,
2013-05-23 22:10:00,53.3,36.6,29.85,SSE,159,0.0,0.0,53,0.00,,,-99.99,Weather View 32 v60,2013-05-24 05:10:00,
2013-05-23 22:15:00,53.2,36.5,29.85,SSE,159,0.0,0.0,53,0.00,,,-99.99,Weather View 32 v60,2013-05-24 05:15:00,
2013-05-23 22:20:00,53.1,36.4,29.85,SSE,159,0.0,0.0,53,0.00,,,-99.99,Weather View 32 v60,2013-05-24 05:20:00,
2013-05-23 22:30:00,52.8,36.6,29.86,SSE,159,0.0,0.0,54,0.00,,,-99.99,Weather View 32 v60,2013-05-24 05:30:00,
2013-05-23 22:40:00,52.6,36.9,29.86,SSE,160,0.0,0.0,55,0.00,,,-99.99,Weather View 32 v60,2013-05-24 05:40:00,
2013-05-23 22:50:00,52.4,37.6,29.85,SSE,159,0.0,0.0,57,0.00,,,-99.99,Weather View 32 v60,2013-05-24 05:50:00,
2013-05-23 22:55:00,52.4,37.6,29.86,SSE,160,0.0,0.0,57,0.00,,,-99.99,Weather View 32 v60,2013-05-24 05:55:00,
2013-05-23 23:00:00,52.4,38.0,29.85,SSE,159,0.0,2.0,58,0.00,,,-99.99,Weather View 32 v60,2013-05-24 06:00:00,
2013-05-23 23:05:00,52.5,38.6,29.85,SSE,159,0.0,2.0,59,0.00,,,-99.99,Weather View 32 v60,2013-05-24 06:05:00,
2013-05-23 23:10:00,52.6,39.1,29.85,SSE,160,0.0,2.0,60,0.00,,,-99.99,Weather View 32 v60,2013-05-24 06:10:00,
2013-05-23 23:15:00,52.7,39.2,29.85,SSE,160,0.0,2.0,60,0.00,,,-99.99,Weather View 32 v60,2013-05-24 06:15:00,
2013-05-23 23:20:00,52.8,39.7,29.85,SSE,159,0.0,2.0,61,0.00,,,-99.99,Weather View 32 v60,2013-05-24 06:20:00,
2013-05-23 23:30:00,53.0,39.9,29.84,SSE,160,2.0,3.0,61,0.00,,,-99.99,Weather View 32 v60,2013-05-24 06:30:00,
2013-05-23 23:40:00,53.2,39.6,29.84,SSE,159,1.0,4.0,60,0.00,,,-99.99,Weather View 32 v60,2013-05-24 06:40:00,
2013-05-23 23:45:00,53.4,39.8,29.84,SSE,160,0.0,4.0,60,0.00,,,-99.99,Weather View 32 v60,2013-05-24 06:45:00,
2013-05-23 23:50:00,53.4,39.8,29.84,SSE,160,0.0,4.0,60,0.00,,,-99.99,Weather View 32 v60,2013-05-24 06:50:00,